Hourly Data Report for October 12, 2014

All times are specified in Local Standard Time (LST). Add 1 hour to adjust for Daylight Saving Time where and when it is observed.

WINNIPEG A CS
MANITOBA

49°55'00.000" N
97°14'58.000" W
238.70 m
502S001
71849
XWG

Download Data

Hourly Data (October 2014)
Hourly Data Report for October 12, 2014
Temp Definition
°C
Dew Point Temp Definition
°C
Rel Hum Definition
%
Wind Dir Definition
10's deg

Wind Spd Definition
km/h
Visibility Definition
km
Stn Press Definition
kPa
Hmdx Definition


Wind Chill Definition


Weather Definition


TIME
00:00 11.0 3.0 58 19 30   97.18     LegendNANA
01:00 11.0 3.3 59 18 33   97.12     LegendNANA
02:00 10.9 3.5 60 18 33   97.10     LegendNANA
03:00 10.6 3.5 61 18 31   97.06     LegendNANA
04:00 10.3 3.9 64 18 27   97.09     LegendNANA
05:00 9.0 5.8 80 18 27   97.08     LegendNANA
06:00 8.1 5.9 86 18 24   97.09     LegendNANA
07:00 7.9 5.4 84 19 25   97.10     LegendNANA
08:00 7.9 5.3 84 19 22   97.18     LegendNANA
09:00 8.3 5.3 81 19 20   97.22     LegendNANA
10:00 9.4 6.5 82 18 14   97.24     LegendNANA
11:00 10.9 7.4 79 18 13   97.28     LegendNANA
12:00 13.5 7.8 69 19 10   97.35     LegendNANA
13:00 14.1 8.3 68 23 11   97.40     LegendNANA
14:00 14.5 8.4 66 2 8   97.40     LegendNANA
15:00 14.7 7.4 62 2 8   97.44     LegendNANA
16:00 14.6 7.9 64 6 5   97.50     LegendNANA
17:00 13.5 8.4 71 13 10   97.57     LegendNANA
18:00 11.9 7.8 76 17 8   97.63     LegendNANA
19:00 11.3 7.7 79 19 8   97.68     LegendNANA
20:00 10.3 6.9 80 18 5   97.71     LegendNANA
21:00 9.3 6.9 85 25 7   97.76     LegendNANA
22:00 6.8 4.9 88 26 8   97.78     LegendNANA
23:00 5.6 4.4 92 28 10   97.81     LegendNANA

Notes on Data Quality.

Legend

  • E = Estimated
  • M = Missing
  • NA = Not Available
  • ‡ = Partner data that is not subject to review by the National Climate Archives
Date modified: